Weather History for Samos, Greece

Change the Weather History Date:

Thursday, June 27, 2013

  Actual Average Record
Temperature  
Mean Temperature 80 °F -  
Max Temperature 91 °F 90 °F 100 °F (2007)
Min Temperature 69 °F 71 °F 62 °F (2010)
Cooling Degree Days 15    
Growing Degree Days 30 (Base 50)    
Moisture  
Dew Point 62 °F    
Average Humidity 47    
Maximum Humidity 83    
Minimum Humidity 27    
Precipitation  
Precipitation 0.00 in 0.00 in - ()
Sea Level Pressure  
Sea Level Pressure 29.80 in    
Wind  
Wind Speed 7 mph ()    
Max Wind Speed 20 mph    
Max Gust Speed -    
Visibility 6.0 miles    
Events      
Averages and records for this station are not official NWS values.
T = Trace of Precipitation, MM = Missing Value Source: Averaged Metar Reports

Daily Weather History Graph

Daily Weather History Graph

Search for Another Location

Airport:

Trip Planner

Search our weather history database for the weather conditions in past years. The results will help you decide how hot, cold, wet, or windy it might be!

Date:

Astronomy

Jun. 27, 2013 Rise Set
Actual Time 5:52 AM EEST 8:38 PM EEST
Civil Twilight 5:21 AM EEST 9:09 PM EEST
Nautical Twilight 4:42 AM EEST 9:48 PM EEST
Astronomical Twilight 3:58 AM EEST 10:32 PM EEST
Moon 11:30 PM EEST (6/27) 10:26 AM EEST (6/27)
Length of Visible Light 15h 47m
Length of Day
14h 45m
Waning Gibbous, 79% of the Moon is Illuminated
Jun 27
Waning Gibbous
Jun 30
Last Quarter
Jul 8
New
Jul 16
First Quarter
Jul 22
Full

Hourly Weather History & Observations

Time (EEST) Temp. Heat Index Dew Point Humidity Pressure Visibility Wind Dir Wind Speed Gust Speed Precip Events Conditions
4:50 AM 69.8 °F - 64.4 °F 83% 29.80 in - WNW 4.6 mph - N/A   Clear
5:20 AM 69.8 °F - 64.4 °F 83% 29.80 in - Calm Calm - N/A   Clear
5:50 AM 69.8 °F - 64.4 °F 83% 29.80 in - Calm Calm - N/A   Clear
6:20 AM 69.8 °F - 64.4 °F 83% 29.80 in - West 3.5 mph - N/A   Clear
6:50 AM 73.4 °F - 60.8 °F 65% 29.80 in - South 2.3 mph - N/A   Clear
7:20 AM 77.0 °F - 66.2 °F 69% 29.80 in - SSE 4.6 mph - N/A   Clear
7:50 AM 80.6 °F 82.7 °F 66.2 °F 61% 29.80 in - WSW 2.3 mph - N/A   Clear
8:20 AM 82.4 °F 84.6 °F 66.2 °F 58% 29.80 in - NNW 6.9 mph - N/A   Clear
8:50 AM 82.4 °F 83.4 °F 62.6 °F 51% 29.80 in - NNE 10.4 mph - N/A   Clear
9:00 AM 82 °F - 62 °F 42% 29.81 in 6 mi NNE 10.4 mph - -  
9:20 AM 84.2 °F 84.4 °F 60.8 °F 45% 29.80 in - North 13.8 mph - N/A   Clear
9:50 AM 84.2 °F 84.4 °F 60.8 °F 45% 29.80 in - North 15.0 mph - N/A   Clear
10:20 AM 84.2 °F 84.4 °F 60.8 °F 45% 29.80 in - North 16.1 mph - N/A   Clear
10:50 AM 86.0 °F 87.3 °F 64.4 °F 48% 29.80 in - North 17.3 mph - N/A   Clear
11:20 AM 86.0 °F 87.3 °F 64.4 °F 48% 29.80 in - North 19.6 mph - N/A   Clear
11:50 AM 87.8 °F 87.1 °F 59.0 °F 38% 29.80 in - North 16.1 mph - N/A   Clear
12:20 PM 87.8 °F 87.1 °F 59.0 °F 38% 29.80 in - North 16.1 mph - N/A   Clear
12:50 PM 89.6 °F 88.1 °F 57.2 °F 33% 29.80 in - North 17.3 mph - N/A   Clear
1:20 PM 89.6 °F 88.1 °F 57.2 °F 33% 29.80 in - North 17.3 mph - N/A   Clear
1:50 PM 91.4 °F 91.4 °F 60.8 °F 36% 29.80 in - North 11.5 mph - N/A   Clear
2:20 PM 91.4 °F 91.4 °F 60.8 °F 36% 29.80 in - North 11.5 mph - N/A   Clear
2:50 PM 91.4 °F 91.4 °F 60.8 °F 36% 29.80 in - North 11.5 mph - N/A   Clear
3:00 PM 91 °F - 61 °F 27% 29.81 in 6 mi North 11.5 mph - -  
3:20 PM 91.4 °F 91.4 °F 60.8 °F 36% 29.80 in - North 11.5 mph - N/A   Clear
3:50 PM 91.4 °F 92.1 °F 62.6 °F 38% 29.80 in - South 11.5 mph - N/A   Clear
4:20 PM 91.4 °F 92.1 °F 62.6 °F 38% 29.80 in - South 11.5 mph - N/A   Clear
4:50 PM 91.4 °F 93.2 °F 64.4 °F 41% 29.80 in - South 9.2 mph - N/A   Clear
5:20 PM 91.4 °F 93.2 °F 64.4 °F 41% 29.80 in - South 9.2 mph - N/A   Clear
5:50 PM 89.6 °F 90.1 °F 62.6 °F 40% 29.80 in - South 11.5 mph - N/A   Clear
6:20 PM 89.6 °F 90.1 °F 62.6 °F 40% 29.80 in - South 11.5 mph - N/A   Clear
6:50 PM 87.8 °F 88.5 °F 62.6 °F 43% 29.80 in - SSE 4.6 mph - N/A   Clear
7:20 PM 86.0 °F 86.6 °F 62.6 °F 45% 29.80 in - SSE 4.6 mph - N/A   Clear
7:50 PM 86.0 °F 86.6 °F 62.6 °F 45% 29.80 in - South 5.8 mph - N/A   Clear
8:20 PM 84.2 °F 85.0 °F 62.6 °F 48% 29.80 in - South 5.8 mph - N/A   Clear
8:50 PM 84.2 °F 83.5 °F 57.2 °F 40% 29.80 in - South 6.9 mph - N/A   Clear
9:00 PM 85 °F - 58 °F 29% 29.80 in 6 mi South 6.9 mph - -